logo tempoitalia

Diretta Meteo Juneau Dodge, Stati Uniti (USA)lunedì 31 agosto ore 01:35

Mappa
Sereno 20 °C Sereno 24 Ore: T.min 19 T.max 27
Ponente Est/Sud-Est Km/h 9.3 Punto di rugiada: 20 °C Umidità: 100% Visibilità: 10 Km
Il sole sorge alle: 06:17 Il sole tramonta alle: 19:32
31 Agosto 2026 01:35 tempo osservato: Sereno Sereno 20 100 1014 vento: Nord E/SE 9.3
31 Agosto 2026 01:23 tempo osservato: Sereno Sereno 20 100 1014 vento: Nord E/SE 11.1
31 Agosto 2026 00:32 tempo osservato: Nuvoloso Nuvoloso 20 100 1015 vento: Nord E/SE 9.3
31 Agosto 2026 00:14 tempo osservato: Coperto Coperto 20 100 1015 vento: Nord E/SE 9.3
30 Agosto 2026 23:50 tempo osservato: Molto Nuvoloso Molto Nuvoloso 21 94 1014 vento: Nord N 0
30 Agosto 2026 23:35 tempo osservato: Nuvoloso Nuvoloso 21 94 1015 vento: Nord N 0
30 Agosto 2026 23:15 tempo osservato: Nuvoloso Nuvoloso 21 100 1015 vento: Nord N 0
30 Agosto 2026 22:50 tempo osservato: Pioviggine Pioviggine 21 100 1015 vento: Nord O/SO 9.3
30 Agosto 2026 22:35 tempo osservato: Sereno Sereno 21 100 1014 vento: Nord N 5.5
30 Agosto 2026 22:15 tempo osservato: Sereno Sereno 21 100 1014 vento: Nord S/SO 11.1
30 Agosto 2026 21:55 tempo osservato: Sereno Sereno 21 100 1014 vento: Nord S/SO 13
30 Agosto 2026 21:34 tempo osservato: Sereno Sereno 21 94 1014 vento: Nord S 14.8
30 Agosto 2026 21:12 tempo osservato: Sereno Sereno 21 100 1014 vento: Nord S 13
30 Agosto 2026 20:55 tempo osservato: Sereno Sereno 21 100 1014 vento: Nord S 14.8
30 Agosto 2026 20:35 tempo osservato: Sereno Sereno 21 100 1014 vento: Nord S 13
30 Agosto 2026 20:15 tempo osservato: Sereno Sereno 21 100 1014 vento: Nord S 11.1
30 Agosto 2026 19:59 tempo osservato: Sereno Sereno 21 100 1014 vento: Nord S 11.1
30 Agosto 2026 19:35 tempo osservato: Sereno Sereno 22 94 1014 vento: Nord S 9.3
30 Agosto 2026 19:15 tempo osservato: Sereno Sereno 22 94 1014 vento: Nord S 13
30 Agosto 2026 18:55 tempo osservato: Sereno Sereno 22 94 1014 vento: Nord S 14.8
30 Agosto 2026 18:35 tempo osservato: Sereno Sereno 23 88 1013 vento: Nord S 13
30 Agosto 2026 18:15 tempo osservato: Sereno Sereno 23 88 1013 vento: Nord S 13
30 Agosto 2026 17:55 tempo osservato: Sereno Sereno 23 83 1013 vento: Nord S/SO 16.7
30 Agosto 2026 17:35 tempo osservato: Sereno Sereno 23 83 1013 vento: Nord S/SO 13
30 Agosto 2026 17:15 tempo osservato: Sereno Sereno 23 83 1013 vento: Nord S/SO 13
30 Agosto 2026 16:55 tempo osservato: Sereno Sereno 24 78 1013 vento: Nord S/SO 18.5
30 Agosto 2026 16:36 tempo osservato: Sereno Sereno 24 78 1012 vento: Nord S/SO 20.3
30 Agosto 2026 16:15 tempo osservato: Sereno Sereno 24 78 1013 vento: Nord S 18.5
30 Agosto 2026 15:55 tempo osservato: Sereno Sereno 25 73 1013 vento: Nord S 22.2
30 Agosto 2026 15:36 tempo osservato: Sereno Sereno 26 69 1013 vento: Nord S/SO 20.3
30 Agosto 2026 15:15 tempo osservato: Sereno Sereno 26 65 1013 vento: Nord S/SO 16.7
30 Agosto 2026 14:55 tempo osservato: Sereno Sereno 26 65 1013 vento: Nord SO 18.5
30 Agosto 2026 14:35 tempo osservato: Sereno Sereno 27 65 1013 vento: Nord SO 18.5
30 Agosto 2026 14:15 tempo osservato: Sereno Sereno 27 61 1013 vento: Nord SO 25.9
30 Agosto 2026 13:55 tempo osservato: Sereno Sereno 27 65 1013 vento: Nord S/SO 29.6
30 Agosto 2026 13:32 tempo osservato: Sereno Sereno 27 61 1013 vento: Nord SO 33.3
30 Agosto 2026 13:15 tempo osservato: Sereno Sereno 27 61 1013 vento: Nord S/SO 27.8
30 Agosto 2026 12:55 tempo osservato: Sereno Sereno 27 65 1012 vento: Nord S/SO 24
30 Agosto 2026 12:34 tempo osservato: Sereno Sereno 27 61 1012 vento: Nord S/SO 16.7
30 Agosto 2026 12:15 tempo osservato: Sereno Sereno 27 61 1012 vento: Nord S 27.8
30 Agosto 2026 11:54 tempo osservato: Sereno Sereno 27 65 1012 vento: Nord S 22.2
30 Agosto 2026 11:35 tempo osservato: Nuvoloso Nuvoloso 27 61 1012 vento: Nord S/SO 24
30 Agosto 2026 11:15 tempo osservato: Nuvoloso Nuvoloso 26 65 1013 vento: Nord S/SO 25.9
30 Agosto 2026 10:55 tempo osservato: Sereno Sereno 26 65 1013 vento: Nord S/SO 20.3
30 Agosto 2026 10:35 tempo osservato: Sereno Sereno 26 65 1013 vento: Nord S/SO 22.2
30 Agosto 2026 10:15 tempo osservato: Sereno Sereno 25 69 1013 vento: Nord S/SO 25.9
30 Agosto 2026 09:55 tempo osservato: Sereno Sereno 25 69 1013 vento: Nord S/SO 20.3
30 Agosto 2026 09:35 tempo osservato: Sereno Sereno 24 73 1012 vento: Nord S/SO 20.3
30 Agosto 2026 09:12 tempo osservato: Sereno Sereno 24 73 1012 vento: Nord S 20.3
30 Agosto 2026 08:58 tempo osservato: Sereno Sereno 23 78 1012 vento: Nord S 18.5
30 Agosto 2026 08:41 tempo osservato: Sereno Sereno 22 83 1013 vento: Nord S 16.7
30 Agosto 2026 08:15 tempo osservato: Sereno Sereno 22 83 1013 vento: Nord S 13
30 Agosto 2026 08:03 tempo osservato: Sereno Sereno 21 88 1013 vento: Nord S 11.1
30 Agosto 2026 07:35 tempo osservato: Sereno Sereno 21 88 1013 vento: Nord S/SE 13
30 Agosto 2026 07:07 tempo osservato: Nuvoloso Nuvoloso 19 100 1013 vento: Nord S/SE 11.1
30 Agosto 2026 06:55 tempo osservato: Molto Nuvoloso Molto Nuvoloso 19 100 1013 vento: Nord SE 11.1
30 Agosto 2026 06:35 tempo osservato: Coperto Coperto 19 100 1013 vento: Nord S/SE 7.4
30 Agosto 2026 06:18 tempo osservato: Coperto Coperto 19 100 1013 vento: Nord SE 9.3
30 Agosto 2026 05:58 tempo osservato: Coperto Coperto 20 93 1013 vento: Nord SE 7.4
30 Agosto 2026 05:41 tempo osservato: Coperto Coperto 20 93 1013 vento: Nord N 5.5
30 Agosto 2026 05:07 tempo osservato: Coperto Coperto 20 93 1013 vento: Nord S/SE 7.4
30 Agosto 2026 04:56 tempo osservato: Coperto Coperto 20 93 1013 vento: Nord S 7.4
30 Agosto 2026 04:33 tempo osservato: Coperto Coperto 20 93 1013 vento: Nord S 9.3
30 Agosto 2026 04:17 tempo osservato: Coperto Coperto 20 93 1013 vento: Nord S 9.3
30 Agosto 2026 03:57 tempo osservato: Coperto Coperto 20 93 1013 vento: Nord S 11.1
30 Agosto 2026 02:46 tempo osservato: Pioggia Pioggia 20 93 1013 vento: Nord S 13
30 Agosto 2026 02:28 tempo osservato: Pioggia Pioggia 20 93 1013 vento: Nord S 13
30 Agosto 2026 01:55 tempo osservato: Coperto Coperto 20 93 1014 vento: Nord S 16.7
30 Agosto 2026 01:38 tempo osservato: Molto Nuvoloso Molto Nuvoloso 20 93 1014 vento: Nord S 16.7